Regional Weather Roundup
Issued by NWS

Home | Current Version | Previous Version | Text Only | Print | Product List | Glossary On
Versions: 1 2 3 4 5 6 7 8 9 10 11 12 13 14 15 16 17 18 19 20 21 22 23 24 25 26 27 28 29 30 31 32 33 34 35 36 37 38 39 40 41 42 43 44 45 46 47 48 49 50
000
ASUS46 KSEW 241910
RWRWA

WASHINGTON REGIONAL WEATHER ROUNDUP
NATIONAL WEATHER SERVICE SEATTLE WA
1200 PM PDT TUE MAY 24 2016

NOTE:"FAIR" INDICATES FEW OR NO CLOUDS BELOW 12,000 FEET WITH NO
SIGNIFICANT WEATHER AND/OR OBSTRUCTIONS TO VISIBILITY.

WAZ505-507>509-242000-
SEATTLE, TACOMA, EVERETT, AND VICINITY

CITY           SKY/WX    TMP DP  RH WIND       PRES   REMARKS
EVERETT        CLOUDY    58  48  69 VRB3      30.00S
BOEING FIELD   CLOUDY    61  52  72 CALM      29.99S
RENTON         CLOUDY    60  51  72 SW3       29.99R
SEATAC AIRPORT CLOUDY    59  51  75 VRB3      30.00S
JBLM-MCCHORD   CLOUDY    58  53  82 SW3       30.00S
PUYALLUP       CLOUDY    59  54  82 CALM      30.00S
BREMERTON      CLOUDY    57  52  82 S3        30.01F
JBLM-FT LEWIS  CLOUDY    58  52  80 VRB3      29.99S
TACOMA NARROWS PTSUNNY   56  50  80 S5        30.00F
$$

WAZ001-503-506-510-514-515-242000-
NORTH INTERIOR

CITY           SKY/WX    TMP DP  RH WIND       PRES   REMARKS
BELLINGHAM     CLOUDY    58  51  78 S8        29.98S
FRIDAY HARBOR  CLOUDY    59  51  75 SE3       30.00R
EASTSOUND      MOSUNNY   59  50  72 CALM      29.97S
PORT ANGELES   CLOUDY    57  49  74 NW8       30.00R
EDIZ HOOK      CLOUDY    55  49  80 W9        30.00S
PORT TOWNSEND  CLOUDY    61  50  67 NW6       30.00S
NAS WHIDBEY    CLOUDY    57  51  80 SW9       30.03S
ARLINGTON      CLOUDY    59  46  63 NW7       30.01S
BURLINGTON     CLOUDY    59  52  77 S7        29.99S
$$

WAZ020-022-039-040-504-511-512-242000-
SOUTHWEST INTERIOR

CITY           SKY/WX    TMP DP  RH WIND       PRES   REMARKS
SHELTON        CLOUDY    63  50  62 SW3       29.97S
OLYMPIA        PTSUNNY   61  49  64 CALM      30.00R
CHEHALIS       CLOUDY    63  50  63 CALM      30.00S
KELSO          PTSUNNY   63  46  55 CALM      30.03S
VANCOUVER      MOSUNNY   64  49  57 VRB3      29.98F
SCAPPOOSE, OR  PTSUNNY   65  49  56 CALM      29.98S
PORTLAND, OR   MOSUNNY   66  48  52 VRB5      29.99S
$$

WAZ021-516-517-242000-
WASHINGTON COAST

CITY           SKY/WX    TMP DP  RH WIND       PRES   REMARKS
FORKS          CLOUDY    57  48  72 NW6       30.01S
HOQUIAM        CLOUDY    59  51  75 SW14      30.01S HAZE
ASTORIA, OR    CLOUDY    60  50  69 NW8       30.02R
$$

WAZ019-023-024-040-518-519-242000-
CASCADE MOUNTAINS AND COLUMBIA GORGE

CITY           SKY/WX    TMP DP  RH WIND       PRES   REMARKS
STAMPEDE PASS  CLOUDY    48  42  80 VRB3      29.97R
TROUTDALE, OR  MOSUNNY   65  49  56 CALM      29.99S
THE DALLES, OR MOSUNNY   72  47  40 NW18G26   29.89F
$$

WAZ026-027-041>044-520-521-242000-
EAST SLOPES

CITY           SKY/WX    TMP DP  RH WIND       PRES   REMARKS
OMAK           SUNNY     68  44  42 VRB5      29.86F
WENATCHEE      SUNNY     69  39  33 NW5       29.86F
ELLENSBURG     CLOUDY    69  41  36 CALM      29.88S
YAKIMA         MOSUNNY   73  41  31 CALM      29.87F
$$

WAZ028-034-035-242000-
COLUMBIA BASIN

CITY           SKY/WX    TMP DP  RH WIND       PRES   REMARKS
EPHRATA        SUNNY     68  45  43 VRB3      29.86F
MOSES LAKE     MOSUNNY   69  44  40 SE6       29.88S
PASCO          MOSUNNY   70  42  36 W6        29.88F
HERMISTON, OR  MOSUNNY   71  42  35 VRB3      29.88F
$$

WAZ036>038-242000-
NORTHEAST WASHINGTON

CITY           SKY/WX    TMP DP  RH WIND       PRES   REMARKS
SPOKANE GEIGER PTSUNNY   57  46  66 S5        29.92S
SPOKANE FELTS  CLOUDY    58  45  62 CALM      29.93R
FAIRCHILD AFB  CLOUDY    57  46  65 VRB3      29.91S
COEURDALENE,ID CLOUDY    55  46  71 S7        29.91S
DEER PARK      PTSUNNY   55  46  71 CALM      29.93S
$$

WAZ029>033-242000-
SOUTHEAST WASHINGTON

CITY           SKY/WX    TMP DP  RH WIND       PRES   REMARKS
PULLMAN        CLOUDY    55  45  68 VRB3      29.95R
LEWISTON, ID   CLOUDY    59  47  64 SE5       29.93R
WALLA WALLA    PTSUNNY   64  44  48 W8        29.90S
PENDLETON, OR  MOSUNNY   66  40  38 MISG      29.89F
$$



USA.gov is the U.S. government's official web portal to all federal, state and local government web resources and services.